Miscellaneous Local Product
Issued by NWS North Platte, NE

Home | Current Version | Previous Version | Text Only | Print | Product List | Glossary On
Versions: 1 2 3 4 5 6 7 8 9 10 11 12 13 14 15 16 17 18 19 20 21 22 23 24 25 26 27 28 29 30 31 32 33 34 35 36 37 38 39 40 41 42 43 44 45 46 47 48 49 50
000
AXUS43 KLBF 050310
MISLBF


WESTERN AND NORTH CENTRAL NEBRASKA HOURLY WEATHER ROUNDUP
NATIONAL WEATHER SERVICE NORTH PLATTE NE
1000 PM CDT SAT JUL 04 2015

***STATIONS NOT REPORTING VARIABLES SUCH AS SKY/WEATHER OR
PRESSURE ARE PROVIDED BY THE NEBRASKA DEPARTMENT OF
ROADS...RAWS...AND APRS NETWORKS...AND ARE NOT UNDER
NATIONAL WEATHER SERVICE QUALITY CONTROL***

...OBSERVATIONS IN AND NEAR THE EASTERN PANHANDLE OF NEBRASKA...

CITY           SKY/WX    TMP DP  RH WIND       PRES   REMARKS
PINE RIDGE     CLEAR     78  64  61 NW3       29.82R
CHADRON        CLEAR     76  65  68 W5        29.80R
ALLIANCE       CLEAR     72  63  73 SE8       29.85R
SIDNEY         CLOUDY    86  50  28 E9        29.92R
WHITECLAY        N/A     76  65  67 CALM        N/A
CRESCENT LAKE    N/A     77  59  53 S6G13       N/A
BIG SPRINGS      N/A     81  63  54 SE12        N/A
$$

...OBSERVATIONS IN NORTH CENTRAL NEBRASKA...

CITY           SKY/WX    TMP DP  RH WIND       PRES   REMARKS
VALENTINE      CLOUDY    83  65  54 S15G32    29.80R
THEDFORD       PTCLDY    79  66  64 SE13      29.87R
AINSWORTH      CLOUDY    81  65  59 S14       29.83R
O`NEILL        MOCLDY    77  68  73 SE10      29.86R
ORD            CLOUDY    77  65  66 SE10      29.85S
BROKEN BOW     PTCLDY    77  65  66 SE8       29.87R
VALENTINE NWR    N/A     81  65  57 S12G18      N/A
SPRINGVIEW       N/A     81  67  62 SE7G16      N/A
HALSEY           N/A     79  64  60 SE7G16      N/A
BREWSTER         N/A     83  69  62 S9          N/A
ROSE             N/A     89  80  74 S15         N/A  HX 105
NEWPORT          N/A     78  69  72 SE7         N/A
CHAMBERS         N/A     73  66  79 S8          N/A
EWING            N/A     72  66  82 S3          N/A
$$

...OBSERVATIONS IN SOUTHWEST NEBRASKA AND FAR NORTHEAST COLORADO...

CITY           SKY/WX    TMP DP  RH WIND       PRES   REMARKS
WRAY           FAIR      84  61  44 SE18G26   29.87R
HOLYOKE        FAIR      82  59  44 S12       29.86R
IMPERIAL       CLOUDY    84  59  42 S15       29.85R
OGALLALA       PTCLDY    80  63  55 SE7       29.84S
NORTH PLATTE   CLEAR     79  64  60 SE9       29.84S
MCCOOK         CLOUDY    83  62  49 SE16      29.85R
LEXINGTON      CLEAR     79  66  64 SE14      29.87S
PAXTON           N/A     79  65  61 SE13        N/A
GOTHENBURG       N/A     79  62  55 SE6         N/A
CALLAWAY         N/A     76  68  77 S12         N/A
$$

...NORTH PLATTE AREA...

CITY           SKY/WX    TMP DP  RH WIND       PRES   REMARKS
AIRPORT        CLEAR     79  64  60 SE9       29.84S
DOWNTOWN         N/A     80  65  59 SE3         N/A
HILLCREST        N/A     79  65  62 SE12G18     N/A
$$

...SOME WEATHER OBSERVATIONS FROM AROUND THE REGION...

CITY           SKY/WX    TMP DP  RH WIND       PRES   REMARKS
DENVER         CLOUDY    77  49  37 S15       30.01R
LARAMIE        CLOUDY    71  42  35 SW9       30.13S
CHEYENNE       CLOUDY    72  52  49 S9        30.03S
SCOTTSBLUFF    PTCLDY    71  65  81 NE6       29.86R
RAPID CITY     CLEAR     73  67  81 N3        29.81R
PIERRE         MOCLDY    80  69  69 SE14      29.72R
WINNER         FAIR      84  63  49 S17G25    29.78R
SIOUX FALLS    PTCLDY    74  64  71 S10       29.88R
OMAHA          PTCLDY    73  63  70 S8        29.92R
GRAND ISLAND   MOCLDY    75  63  66 SE10      29.90R
KANSAS CITY    PTCLDY    71  64  78 SE6       29.97R
WICHITA        PTCLDY    81  65  58 SE7       29.91R
HAYS           MOCLDY    81  63  54 SE10      29.90R
LIBERAL        MOCLDY    77  64  65 SE12      29.94S
GOODLAND       MOCLDY    81  62  52 SE16G25   29.90R
$$



USA.gov is the U.S. government's official web portal to all federal, state and local government web resources and services.